Location: Colebrook
(42.0017°N, 73.0973°W)
Time: 12:08:44
(UTC-04:00)

Amateur Radio Satellites - All Passes

Search period start: 01 September 2015 11:38
Search period end: 02 September 2015 11:38
Location: Colebrook, 42.0017°N, 73.0973°W

Satellite Date Start Highest point End Downlink Frequencies (MHz)
Time Altitude Azimuth
HO-68 01 Sep 11:40:18 11:45:00 18° 305° (NW) 11:49:24 435.675
50 SAT 01 Sep 11:40:37 11:44:24 50° 99° (E) 11:48:08 437.505
Cosmos 2504 01 Sep 11:41:21 11:49:27 49° 271° (W) 11:57:00 435.465 / 435.565
HUMSAT D 01 Sep 11:46:28 11:50:39 55° 286° (WNW) 11:54:44 437.325/437.525
DX 1 01 Sep 11:50:08 11:54:32 84° 103° (ESE) 11:58:56 434.975-435.025
DANDE 01 Sep 11:56:39 12:04:13 70° 263° (W) 12:12:40 436.750
Oscar 11 01 Sep 11:59:22 12:01:17 12° 297° (WNW) 12:03:00 145.826/435.025
UKube-1 01 Sep 12:01:57 12:06:19 80° 285° (WNW) 12:10:39 .
ESTCUBE 1 01 Sep 12:02:57 12:07:23 55° 100° (E) 12:11:49 437.505/2401.250
TIGRISAT 01 Sep 12:06:19 12:08:29 13° 273° (W) 12:10:24 435.000
SPROUT 01 Sep 12:07:54 12:10:30 16° 90° (E) 12:13:16 437.525
PCSat 01 Sep 12:08:24 12:13:15 33° 249° (WSW) 12:18:01 145.827
CUBEBUG 1 01 Sep 12:13:13 12:17:36 59° 100° (E) 12:21:58 437.445
AISAT 01 Sep 12:14:16 12:18:47 82° 284° (WNW) 12:23:16 437.250
Oscar 19 01 Sep 12:19:46 12:23:30 21° 64° (ENE) 12:27:24 437.125/150
GONETS M04 01 Sep 12:19:58 12:25:18 18° 58° (ENE) 12:31:06
ISS 01 Sep 12:21:24 12:23:23 15° 1° (N) 12:25:23 145.825
POLYITAN 1 01 Sep 12:41:25 12:43:03 12° 272° (W) 12:44:26 437.675
VELOX 1 01 Sep 12:42:33 12:46:47 42° 289° (WNW) 12:51:00 145.980
DUCHIFAT 1 01 Sep 12:43:49 12:45:21 11° 272° (W) 12:46:40 145.980
POPSAT HIP 1 01 Sep 12:44:04 12:45:26 11° 272° (W) 12:46:33 437.405
BUGSAT 1 01 Sep 12:47:49 12:50:18 15° 270° (W) 12:52:39 437.445
Gurwin Techsat 1B 01 Sep 13:05:37 13:09:04 18° 63° (ENE) 13:12:43 435.225
TISAT 1 01 Sep 13:08:37 13:12:40 40° 98° (E) 13:16:43 437.305
CUSAT 1 01 Sep 13:10:00 13:14:54 17° 277° (W) 13:19:28 437.405
50 SAT 01 Sep 13:16:42 13:18:31 13° 295° (WNW) 13:20:09 437.505
ITAMSAT 1 01 Sep 13:20:01 13:23:38 20° 64° (ENE) 13:27:24 435.822/435.867
DX 1 01 Sep 13:29:17 13:30:11 10° 299° (WNW) 13:30:51 434.975-435.025
ESTCUBE 1 01 Sep 13:41:06 13:43:51 16° 296° (WNW) 13:46:27 437.505/2401.250
ITUPSAT 1 01 Sep 13:42:23 13:45:13 16° 90° (E) 13:48:14 437.325
DANDE 01 Sep 13:42:38 13:46:34 14° 277° (W) 13:50:07 436.750
SPROUT 01 Sep 13:42:41 13:46:53 46° 287° (WNW) 13:51:01 437.525
CUBEBUG 1 01 Sep 13:51:03 13:53:32 14° 296° (WNW) 13:55:50 437.445
Oscar 19 01 Sep 13:57:29 14:02:31 51° 261° (W) 14:07:35 437.125/150
ISS 01 Sep 13:57:49 14:00:37 26° 21° (NNE) 14:03:25 145.825
JAS-2 01 Sep 14:02:35 14:09:31 39° 65° (ENE) 14:16:38 435.910
BEESAT 01 Sep 14:14:07 14:18:25 34° 96° (E) 14:22:46 436.000
GONETS M04 01 Sep 14:14:58 14:23:49 83° 81° (E) 14:32:41
AO-7 01 Sep 14:20:09 14:26:47 28° 56° (NE) 14:33:36 29.400- 29.500
SWISSCUBE 01 Sep 14:39:53 14:44:39 69° 102° (ESE) 14:49:23 437.505
Cosmos 2499 01 Sep 14:40:40 14:48:24 35° 68° (ENE) 14:55:48 435.465 / 435.565
Gurwin Techsat 1B 01 Sep 14:43:21 14:48:36 63° 259° (W) 14:53:54 435.225
TISAT 1 01 Sep 14:45:07 14:48:09 19° 294° (WNW) 14:51:04 437.305
BEESAT 3 01 Sep 14:48:43 14:52:37 47° 118° (ESE) 14:56:33 437.485
ITAMSAT 1 01 Sep 14:57:42 15:02:46 54° 260° (W) 15:07:52 435.822/435.867
BEESAT 2 01 Sep 15:01:44 15:05:41 49° 118° (ESE) 15:09:40 435.950
KKS-1 01 Sep 15:15:00 15:18:36 24° 94° (E) 15:22:17 437.445
ITUPSAT 1 01 Sep 15:18:51 15:23:30 54° 288° (WNW) 15:28:09 437.325
HORYU 2 01 Sep 15:24:45 15:28:51 36° 70° (ENE) 15:33:00 437.375
ISS 01 Sep 15:34:01 15:37:12 54° 219° (SW) 15:40:23 145.825
RS-15 01 Sep 15:36:49 15:46:50 46° 110° (ESE) 15:57:21 29.354- 29.394
AIST 2 01 Sep 15:43:07 15:46:41 27° 115° (ESE) 15:50:20 435.215
JAS-2 01 Sep 15:46:54 15:54:20 50° 263° (W) 16:01:56 435.910
BEESAT 01 Sep 15:52:11 15:56:09 26° 293° (WNW) 16:00:02 436.000
AO-7 01 Sep 16:10:37 16:18:58 72° 255° (WSW) 16:27:20 29.400- 29.500
GONETS M04 01 Sep 16:13:33 16:19:45 21° 280° (W) 16:25:31
SWISSCUBE 01 Sep 16:19:23 16:21:59 14° 298° (WNW) 16:24:23 437.505
BEESAT 3 01 Sep 16:27:44 16:30:48 20° 317° (NW) 16:33:48 437.485
STARS 01 Sep 16:30:23 16:34:51 89° 284° (WNW) 16:39:17 437.465
Cosmos 2499 01 Sep 16:33:37 16:41:56 52° 270° (W) 16:49:38 435.465 / 435.565
BEESAT 2 01 Sep 16:40:55 16:44:00 19° 317° (NW) 16:47:00 435.950
Cubesat XI-IV 01 Sep 16:45:23 16:47:37 13° 59° (ENE) 16:50:07 437.490
KKS-1 01 Sep 16:51:15 16:55:18 33° 291° (WNW) 16:59:18 437.445
HORYU 2 01 Sep 17:02:03 17:05:36 22° 267° (W) 17:09:04 437.375
MOZHAYETS 4 01 Sep 17:08:29 17:12:59 57° 100° (E) 17:17:29
AIST 2 01 Sep 17:21:20 17:25:11 32° 312° (NW) 17:29:01 435.215
CUTE-I 01 Sep 17:27:27 17:31:58 30° 67° (ENE) 17:36:36 437.470
RS-15 01 Sep 17:48:19 17:59:05 56° 314° (NW) 18:10:19 29.354- 29.394
AO-7 01 Sep 18:09:35 18:13:26 13° 276° (W) 18:16:37 29.400- 29.500
O/OREOS (USA 219) 01 Sep 18:15:08 18:18:31 22° 103° (ESE) 18:22:03 437.305
Cubesat XI-IV 01 Sep 18:21:42 18:27:03 90° 107° (ESE) 18:32:25 437.490
Cosmos 2491 01 Sep 18:30:17 18:35:32 18° 58° (ENE) 18:41:14 435.465 / 435.565
HO-68 01 Sep 18:35:57 18:39:42 16° 53° (NE) 18:43:47 435.675
MOZHAYETS 4 01 Sep 18:47:04 18:49:48 15° 296° (WNW) 18:52:21
CUBESAT XI-V 01 Sep 19:04:24 19:09:04 84° 104° (ESE) 19:13:43 437.345
CUTE-I 01 Sep 19:07:05 19:11:58 36° 263° (W) 19:16:50 437.470
PRISM 01 Sep 19:10:14 19:12:25 14° 91° (E) 19:14:46 437.425
CANX-2 01 Sep 19:13:01 19:14:26 12° 63° (ENE) 19:16:04 2200.000
STRAND 1 01 Sep 19:14:32 19:18:50 27° 94° (E) 19:23:12 437.568
AIST 1 01 Sep 19:27:35 19:31:57 88° 255° (WSW) 19:36:18
SEEDS 01 Sep 19:32:17 19:34:16 13° 65° (ENE) 19:36:27 437.485
BRITE-PL 01 Sep 19:32:23 19:36:44 71° 76° (ENE) 19:41:28 437.365/2234.400
COMPASS 1 01 Sep 19:51:58 19:54:37 17° 66° (ENE) 19:57:24 437.405
O/OREOS (USA 219) 01 Sep 19:53:29 19:57:44 38° 299° (WNW) 20:02:01 437.305
GOMX 1 01 Sep 19:56:38 20:01:08 74° 75° (ENE) 20:06:02 467.674
AAUSAT CUBESAT 2 01 Sep 20:01:13 20:04:00 18° 67° (ENE) 20:06:54 437.432
DOVE 4 01 Sep 20:05:48 20:10:20 56° 73° (ENE) 20:15:11 437.250
RS-15 01 Sep 20:05:58 20:14:52 25° 345° (NNW) 20:23:57 29.354- 29.394
Cubesat XI-IV 01 Sep 20:06:29 20:08:01 11° 274° (W) 20:09:10 437.490
HO-68 01 Sep 20:19:15 20:26:23 75° 71° (ENE) 20:33:35 435.675
Cosmos 2491 01 Sep 20:25:17 20:34:05 82° 81° (E) 20:42:54 435.465 / 435.565
ZACube-1 01 Sep 20:28:12 20:29:49 12° 62° (ENE) 20:31:41 437.345
CUBEBUG 2 01 Sep 20:30:06 20:33:33 21° 66° (ENE) 20:37:11 437.445
CUTE 1.7 + AOD 2 01 Sep 20:31:23 20:35:40 73° 75° (ENE) 20:39:57 437.475
FUNcube-1 01 Sep 20:32:46 20:34:45 13° 63° (ENE) 20:36:56 145.935
YUBILEINY 01 Sep 20:33:02 20:40:58 41° 87° (E) 20:49:05 435.215
UWE-3 01 Sep 20:35:28 20:38:37 19° 66° (ENE) 20:41:56 435.000/436.395/437.385
PRISM 01 Sep 20:44:11 20:48:08 46° 288° (WNW) 20:52:05 437.425
CUBESAT XI-V 01 Sep 20:44:20 20:45:54 11° 298° (WNW) 20:47:13 437.345
CINEMA 3 01 Sep 20:44:30 20:49:08 62° 74° (ENE) 20:54:01 145.822/145.860
CANX-2 01 Sep 20:45:34 20:49:50 70° 259° (W) 20:54:08 2200.000
STRAND 1 01 Sep 20:53:27 20:58:07 36° 291° (WNW) 21:02:45 437.568
SEEDS 01 Sep 21:05:26 21:09:38 58° 260° (W) 21:13:50 437.485
HUMSAT D 01 Sep 21:05:58 21:07:01 11° 63° (ENE) 21:08:17 437.325/437.525
BRITE-PL 01 Sep 21:14:50 21:16:05 11° 276° (W) 21:17:02 437.365/2234.400
Oscar 11 01 Sep 21:16:10 21:20:23 53° 74° (ENE) 21:24:39 145.826/435.025
COMPASS 1 01 Sep 21:25:57 21:29:58 43° 262° (W) 21:34:00 437.405
AAUSAT CUBESAT 2 01 Sep 21:35:21 21:39:19 40° 262° (W) 21:43:17 437.432
GOMX 1 01 Sep 21:38:35 21:40:05 11° 276° (W) 21:41:18 467.674
AISAT 01 Sep 21:40:18 21:40:34 10° 61° (ENE) 21:41:05 437.250
DOVE 4 01 Sep 21:45:41 21:48:36 16° 273° (W) 21:51:25 437.250
DELFI C3 01 Sep 21:52:10 21:56:13 87° 80° (E) 22:00:18 145.870
ZACube-1 01 Sep 22:01:01 22:05:35 79° 260° (W) 22:10:13 437.345
VELOX 1 01 Sep 22:05:20 22:08:15 18° 65° (ENE) 22:11:19 145.980
CUBEBUG 2 01 Sep 22:05:32 22:09:57 43° 263° (W) 22:14:29 437.445
FUNcube-1 01 Sep 22:05:58 22:10:30 72° 258° (WSW) 22:15:07 145.935
HO-68 01 Sep 22:09:39 22:14:55 21° 271° (W) 22:19:53 435.675
UWE-3 01 Sep 22:10:20 22:14:47 48° 262° (W) 22:19:20 435.000/436.395/437.385
TIGRISAT 01 Sep 22:19:46 22:21:59 14° 88° (E) 22:24:25 435.000
Cosmos 2504 01 Sep 22:20:26 22:26:48 27° 82° (E) 22:33:41 435.465 / 435.565
RS-15 01 Sep 22:23:09 22:32:27 27° 20° (NNE) 22:42:16 29.354- 29.394
Cosmos 2491 01 Sep 22:23:53 22:30:02 21° 280° (W) 22:35:46 435.465 / 435.565
CINEMA 3 01 Sep 22:24:09 22:26:52 15° 273° (W) 22:29:25 145.822/145.860
50 SAT 01 Sep 22:24:20 22:27:47 30° 71° (ENE) 22:31:17 437.505
YUBILEINY 01 Sep 22:29:25 22:37:46 45° 288° (WNW) 22:46:07 435.215
ANTELSAT 01 Sep 22:36:20 22:39:48 22° 92° (E) 22:43:18 437.575/2403.000
HUMSAT D 01 Sep 22:37:51 22:42:10 78° 259° (WSW) 22:46:32 437.325/437.525
M-CUBED/EXP-1 PRIME 01 Sep 22:45:49 22:47:43 14° 93° (E) 22:49:42 437.505
DX 1 01 Sep 22:45:51 22:50:10 76° 75° (ENE) 22:54:31 434.975-435.025
POPSAT HIP 1 01 Sep 22:52:35 22:53:05 10° 87° (E) 22:53:52 437.405
Oscar 11 01 Sep 22:54:32 22:56:57 14° 271° (W) 22:59:11 145.826/435.025
CUSAT 1 01 Sep 22:55:13 22:55:48 10° 78° (ENE) 22:56:41 437.405
UKube-1 01 Sep 22:56:48 23:01:07 90° 98° (E) 23:05:28 .
ESTCUBE 1 01 Sep 23:02:49 23:07:10 53° 73° (ENE) 23:11:33 437.505/2401.250
SPROUT 01 Sep 23:03:12 23:05:21 14° 64° (ENE) 23:07:40 437.525
BEESAT 3 01 Sep 23:06:46 23:10:28 33° 49° (NE) 23:14:07 437.485
QB50P2 01 Sep 23:07:54 23:10:37 17° 91° (E) 23:13:29 145.880/145.840
NANOSAT C BR1 01 Sep 23:08:10 23:10:46 16° 91° (E) 23:13:30 145.865
CUBEBUG 1 01 Sep 23:09:37 23:13:47 50° 73° (ENE) 23:18:01 437.445
AISAT 01 Sep 23:12:05 23:16:30 87° 253° (WSW) 23:20:58 437.250
BEESAT 2 01 Sep 23:20:23 23:24:08 35° 49° (NE) 23:27:51 435.950
QB50P1 01 Sep 23:21:40 23:25:04 23° 93° (E) 23:28:32 145.935-145.965
UNISAT 6 01 Sep 23:26:29 23:31:05 75° 102° (ESE) 23:35:32 437.425
DANDE 01 Sep 23:29:41 23:31:17 12° 81° (E) 23:33:14 436.750
VELOX 1 01 Sep 23:40:17 23:44:29 45° 261° (W) 23:48:44 145.980
TIGRISAT 01 Sep 23:54:42 23:59:13 57° 286° (WNW) 00:03:35 435.000
50 SAT 01 Sep 23:59:19 00:02:21 20° 267° (W) 00:05:19 437.505
TISAT 1 02 Sep 00:01:06 00:04:49 32° 70° (ENE) 00:08:37 437.305
AIST 2 02 Sep 00:04:11 00:07:32 23° 45° (NE) 00:10:54 435.215
Cosmos 2504 02 Sep 00:10:14 00:18:22 66° 282° (WNW) 00:26:56 435.465 / 435.565
ANTELSAT 02 Sep 00:12:30 00:16:43 36° 290° (WNW) 00:20:48 437.575/2403.000
AUBIESAT-1 02 Sep 00:12:33 00:16:28 61° 290° (WNW) 00:20:01 437.475
M-CUBED/EXP-1 PRIME 02 Sep 00:19:06 00:22:54 43° 294° (WNW) 00:26:23 437.505
POLYITAN 1 02 Sep 00:23:04 00:27:23 72° 285° (WNW) 00:31:39 437.675
DUCHIFAT 1 02 Sep 00:24:39 00:28:57 74° 285° (WNW) 00:33:11 145.980
POPSAT HIP 1 02 Sep 00:25:13 00:29:31 70° 285° (WNW) 00:33:47 437.405
BUGSAT 1 02 Sep 00:27:19 00:31:36 74° 101° (E) 00:35:52 437.445
CUSAT 1 02 Sep 00:33:10 00:37:08 67° 284° (WNW) 00:42:29 437.405
RS-15 02 Sep 00:36:16 00:47:57 63° 49° (NE) 01:00:06 29.354- 29.394
SPROUT 02 Sep 00:36:45 00:40:59 58° 260° (W) 00:45:15 437.525
ESTCUBE 1 02 Sep 00:41:46 00:44:24 15° 270° (W) 00:46:51 437.505/2401.250
QB50P2 02 Sep 00:42:39 00:46:45 43° 288° (WNW) 00:50:49 145.880/145.840
NANOSAT C BR1 02 Sep 00:42:44 00:46:52 45° 287° (WNW) 00:50:56 145.865
BEESAT 3 02 Sep 00:44:59 00:48:13 23° 246° (WSW) 00:51:21 437.485
CUBEBUG 1 02 Sep 00:48:00 00:50:30 15° 270° (W) 00:52:49 437.445
ITUPSAT 1 02 Sep 00:49:35 00:53:01 21° 65° (ENE) 00:56:36 437.325
QB50P1 02 Sep 00:57:08 01:00:59 31° 290° (WNW) 01:04:45 145.935-145.965
BEESAT 2 02 Sep 00:58:47 01:02:00 22° 246° (WSW) 01:05:05 435.950
SO-50 02 Sep 01:01:58 01:06:42 65° 120° (ESE) 01:11:35 436.795
UNISAT 6 02 Sep 01:05:21 01:07:16 12° 298° (WNW) 01:08:58 437.425
PCSat 02 Sep 01:07:22 01:11:57 30° 110° (ESE) 01:16:39 145.827
DANDE 02 Sep 01:10:08 01:13:35 42° 288° (WNW) 01:18:08 436.750
BEESAT 02 Sep 01:20:52 01:25:19 41° 70° (ENE) 01:29:49 436.000
GONETS M04 02 Sep 01:23:39 01:28:52 19° 79° (E) 01:34:34
TISAT 1 02 Sep 01:37:20 01:40:40 22° 267° (W) 01:43:55 437.305
AIST 2 02 Sep 01:42:20 01:46:15 39° 243° (WSW) 01:50:05 435.215
SWISSCUBE 02 Sep 01:46:39 01:51:25 82° 75° (ENE) 01:56:12 437.505
BUGSAT 1 02 Sep 02:05:10 02:06:31 11° 297° (WNW) 02:07:40 437.445
Oscar 19 02 Sep 02:08:28 02:13:35 55° 100° (E) 02:18:40 437.125/150
Cosmos 2504 02 Sep 02:08:32 02:12:43 14° 306° (NW) 02:16:25 435.465 / 435.565
KKS-1 02 Sep 02:13:43 02:17:13 24° 67° (ENE) 02:20:50 437.445
ITUPSAT 1 02 Sep 02:26:04 02:30:39 45° 261° (W) 02:35:13 437.325
SO-50 02 Sep 02:43:58 02:47:44 21° 320° (NW) 02:51:28 436.795
RS-15 02 Sep 02:49:14 03:00:09 43° 250° (WSW) 03:11:07 29.354- 29.394
PCSat 02 Sep 02:50:08 02:55:14 41° 307° (NW) 03:00:22 145.827
JAS-2 02 Sep 02:57:49 03:03:31 28° 89° (E) 03:08:47 435.910
Gurwin Techsat 1B 02 Sep 02:59:07 03:04:18 51° 99° (E) 03:09:28 435.225
BEESAT 02 Sep 02:59:41 03:03:21 21° 268° (W) 03:06:55 436.000
ITAMSAT 1 02 Sep 03:10:00 03:15:02 51° 99° (E) 03:20:06 435.822/435.867
GONETS M04 02 Sep 03:15:58 03:24:40 88° 279° (W) 03:33:27
Cosmos 2499 02 Sep 03:17:41 03:24:25 28° 83° (E) 03:31:39 435.465 / 435.565
STARS 02 Sep 03:27:16 03:31:41 84° 78° (ENE) 03:36:09 437.465
SWISSCUBE 02 Sep 03:29:07 03:29:59 10° 273° (W) 03:30:31 437.505
VERMONT LUNAR 02 Sep 03:44:41 03:47:25 33° 162° (SSE) 03:50:10 437.305
Oscar 19 02 Sep 03:48:47 03:52:34 20° 296° (WNW) 03:56:12 437.125/150
KKS-1 02 Sep 03:49:39 03:53:43 34° 264° (W) 03:57:46 437.445
MOZHAYETS 4 02 Sep 04:10:33 04:15:03 57° 74° (ENE) 04:19:35
AO-7 02 Sep 04:12:04 04:19:36 38° 97° (E) 04:27:13 29.400- 29.500
O/OREOS (USA 219) 02 Sep 04:23:33 04:27:59 45° 62° (ENE) 04:32:24 437.305
Gurwin Techsat 1B 02 Sep 04:39:54 04:43:58 22° 296° (WNW) 04:47:53 435.225
JAS-2 02 Sep 04:42:14 04:49:02 51° 291° (WNW) 04:54:59 435.910
ITAMSAT 1 02 Sep 04:50:20 04:54:14 21° 296° (WNW) 04:57:59 435.822/435.867
HORYU 2 02 Sep 04:51:33 04:56:01 69° 102° (ESE) 05:00:27 437.375
PHONESAT 2.4 02 Sep 04:52:42 04:54:54 16° 151° (SSE) 04:57:10 2401.200-2431.200
Cosmos 2499 02 Sep 05:08:30 05:16:58 66° 282° (WNW) 05:25:49 435.465 / 435.565
GONETS M04 02 Sep 05:17:03 05:23:03 19° 301° (WNW) 05:28:41
VERMONT LUNAR 02 Sep 05:20:41 05:23:39 66° 178° (S) 05:26:36 437.305
CUTE-I 02 Sep 05:46:47 05:47:27 10° 85° (E) 05:48:31 437.470
MOZHAYETS 4 02 Sep 05:50:02 05:52:42 15° 271° (W) 05:55:09
PRISM 02 Sep 06:01:40 06:03:12 12° 64° (ENE) 06:04:56 437.425
O/OREOS (USA 219) 02 Sep 06:03:52 06:07:06 18° 259° (WSW) 06:10:10 437.305
AO-7 02 Sep 06:04:42 06:12:37 50° 296° (WNW) 06:20:26 29.400- 29.500
CUBESAT XI-V 02 Sep 06:07:57 06:12:33 84° 76° (ENE) 06:17:10 437.345
PHONESAT 2.4 02 Sep 06:29:03 06:32:22 49° 167° (SSE) 06:35:40 2401.200-2431.200
HORYU 2 02 Sep 06:30:03 06:32:08 13° 298° (WNW) 06:34:01 437.375
STRAND 1 02 Sep 06:30:41 06:35:25 41° 70° (ENE) 06:40:13 437.568
Cubesat XI-IV 02 Sep 06:38:51 06:43:41 35° 96° (E) 06:48:33 437.490
YUBILEINY 02 Sep 06:43:00 06:49:04 21° 60° (ENE) 06:55:30 435.215
VERMONT LUNAR 02 Sep 06:57:04 06:59:55 42° 195° (SSW) 07:02:45 437.305
Cosmos 2499 02 Sep 07:07:48 07:12:20 14° 306° (NW) 07:16:22 435.465 / 435.565
CUTE-I 02 Sep 07:23:05 07:28:26 87° 102° (ESE) 07:33:47 437.470
Cosmos 2491 02 Sep 07:34:05 07:39:18 19° 79° (E) 07:45:00 435.465 / 435.565
PRISM 02 Sep 07:34:08 07:38:11 61° 259° (WSW) 07:42:14 437.425
BRITE-PL 02 Sep 07:36:20 07:40:57 27° 93° (E) 07:45:46 437.365/2234.400
HO-68 02 Sep 07:49:42 07:52:08 12° 84° (E) 07:55:07 435.675
SO-50 02 Sep 07:54:12 07:56:34 13° 32° (NNE) 07:59:04 436.795
AIST 1 02 Sep 07:57:18 08:01:25 52° 94° (E) 08:05:34
GOMX 1 02 Sep 07:58:07 08:02:34 26° 92° (E) 08:07:08 467.674
AO-7 02 Sep 08:00:46 08:03:37 12° 317° (NW) 08:06:01 29.400- 29.500
DOVE 4 02 Sep 08:05:20 08:08:47 18° 88° (E) 08:12:25 437.250
PHONESAT 2.4 02 Sep 08:06:43 08:10:07 68° 183° (S) 08:13:30 2401.200-2431.200
STRAND 1 02 Sep 08:10:41 08:14:49 24° 267° (W) 08:18:51 437.568
ISS 02 Sep 08:13:18 08:16:16 34° 138° (SE) 08:19:16 145.825
CUTE 1.7 + AOD 2 02 Sep 08:18:17 08:19:47 12° 88° (E) 08:21:30 437.475
Cubesat XI-IV 02 Sep 08:19:04 08:23:44 31° 293° (WNW) 08:28:19 437.490
CANX-2 02 Sep 08:31:18 08:34:18 19° 92° (E) 08:37:23 2200.000
VERMONT LUNAR 02 Sep 08:34:31 08:35:53 12° 209° (SSW) 08:37:12 437.305
YUBILEINY 02 Sep 08:38:25 08:47:18 87° 265° (W) 08:56:07 435.215
CINEMA 3 02 Sep 08:40:26 08:43:23 16° 88° (E) 08:46:29 145.822/145.860
SEEDS 02 Sep 08:49:54 08:53:06 22° 93° (E) 08:56:23 437.485
CUTE-I 02 Sep 09:05:12 09:07:52 14° 300° (WNW) 09:10:16 437.470
COMPASS 1 02 Sep 09:09:01 09:12:33 27° 95° (E) 09:16:07 437.405
BRITE-PL 02 Sep 09:14:21 09:19:35 44° 289° (WNW) 09:24:56 437.365/2234.400
AAUSAT CUBESAT 2 02 Sep 09:17:50 09:21:24 28° 95° (E) 09:25:01 437.432
TIGRISAT 02 Sep 09:18:59 09:21:32 15° 63° (ENE) 09:24:17 435.000
CUSAT 1 02 Sep 09:25:35 09:31:06 21° 62° (ENE) 09:37:11 437.405
AUBIESAT-1 02 Sep 09:25:59 09:29:20 20° 61° (ENE) 09:32:47 437.475
Cosmos 2491 02 Sep 09:26:24 09:35:08 88° 281° (W) 09:43:54 435.465 / 435.565
M-CUBED/EXP-1 PRIME 02 Sep 09:32:10 09:36:07 27° 63° (ENE) 09:40:05 437.505
DELFI C3 02 Sep 09:33:05 09:34:02 11° 88° (E) 09:35:14 145.870
SO-50 02 Sep 09:33:12 09:38:09 65° 54° (NE) 09:42:57 436.795
HO-68 02 Sep 09:34:00 09:41:14 75° 104° (ESE) 09:48:26 435.675
ANTELSAT 02 Sep 09:35:35 09:39:08 22° 67° (ENE) 09:42:50 437.575/2403.000
GOMX 1 02 Sep 09:35:39 09:40:51 45° 289° (WNW) 09:46:02 467.674
AIST 1 02 Sep 09:37:19 09:39:30 13° 293° (WNW) 09:41:29
DOVE 4 02 Sep 09:41:43 09:46:59 60° 286° (WNW) 09:52:09 437.250
PHONESAT 2.4 02 Sep 09:44:39 09:47:47 34° 200° (SSW) 09:50:54 2401.200-2431.200
ISS 02 Sep 09:49:40 09:52:41 33° 335° (NNW) 09:55:42 145.825
ZACube-1 02 Sep 09:50:18 09:53:32 20° 91° (E) 09:56:51 437.345
CUTE 1.7 + AOD 2 02 Sep 09:51:59 09:56:09 58° 286° (WNW) 10:00:16 437.475
PCSat 02 Sep 09:54:17 09:58:57 29° 48° (NE) 10:03:40 145.827
FUNcube-1 02 Sep 09:54:51 09:58:14 22° 92° (E) 10:01:40 145.935
CUBEBUG 2 02 Sep 09:56:16 10:00:41 40° 97° (E) 10:04:58 437.445
Cosmos 2504 02 Sep 09:56:44 10:04:45 45° 73° (ENE) 10:12:22 435.465 / 435.565
UWE-3 02 Sep 10:00:05 10:04:15 34° 96° (E) 10:08:19 435.000/436.395/437.385
NANOSAT C BR1 02 Sep 10:01:52 10:03:55 14° 64° (ENE) 10:06:09 145.865
QB50P2 02 Sep 10:01:55 10:04:10 15° 64° (ENE) 10:06:35 145.880/145.840
DANDE 02 Sep 10:04:05 10:10:20 28° 67° (ENE) 10:17:23 436.750
CANX-2 02 Sep 10:06:28 10:10:22 36° 289° (WNW) 10:14:12 2200.000
QB50P1 02 Sep 10:15:11 10:18:09 19° 67° (ENE) 10:21:16 145.935-145.965
CINEMA 3 02 Sep 10:16:06 10:21:03 59° 286° (WNW) 10:25:49 145.822/145.860
HUMSAT D 02 Sep 10:22:40 10:25:18 16° 90° (E) 10:28:04 437.325/437.525
UNISAT 6 02 Sep 10:25:12 10:29:51 69° 75° (ENE) 10:34:35 437.425
SEEDS 02 Sep 10:25:13 10:28:58 31° 289° (WNW) 10:32:38 437.485
DX 1 02 Sep 10:35:36 10:37:27 13° 89° (E) 10:39:31 434.975-435.025
YUBILEINY 02 Sep 10:37:30 10:43:00 18° 282° (WNW) 10:47:57 435.215
Oscar 11 02 Sep 10:38:58 10:43:18 79° 284° (WNW) 10:47:36 145.826/435.025
COMPASS 1 02 Sep 10:44:43 10:48:09 25° 291° (WNW) 10:51:29 437.405
UKube-1 02 Sep 10:45:16 10:47:35 14° 90° (E) 10:50:05 .
TIGRISAT 02 Sep 10:53:08 10:57:47 65° 259° (W) 11:02:29 435.000
AAUSAT CUBESAT 2 02 Sep 10:53:34 10:56:55 23° 291° (WNW) 11:00:09 437.432
ESTCUBE 1 02 Sep 10:57:43 10:58:35 11° 87° (E) 10:59:44 437.505/2401.250
AUBIESAT-1 02 Sep 10:59:06 11:03:44 50° 256° (WSW) 11:08:15 437.475
AISAT 02 Sep 11:03:18 11:06:14 18° 91° (E) 11:09:19 437.250
DELFI C3 02 Sep 11:05:36 11:09:32 57° 286° (WNW) 11:13:25 145.870
M-CUBED/EXP-1 PRIME 02 Sep 11:06:15 11:10:44 37° 258° (WSW) 11:15:06 437.505
CUSAT 1 02 Sep 11:06:45 11:14:40 89° 80° (E) 11:22:55 437.405
ANTELSAT 02 Sep 11:11:15 11:15:41 40° 263° (W) 11:20:08 437.575/2403.000
SO-50 02 Sep 11:15:05 11:18:13 16° 250° (WSW) 11:21:06 436.795
POLYITAN 1 02 Sep 11:15:57 11:20:14 88° 82° (E) 11:24:34 437.675
DUCHIFAT 1 02 Sep 11:16:53 11:21:07 85° 77° (ENE) 11:25:25 145.980
BUGSAT 1 02 Sep 11:17:33 11:21:30 52° 74° (ENE) 11:25:32 437.445
POPSAT HIP 1 02 Sep 11:17:55 11:22:10 90° 327° (NNW) 11:26:29 437.405
HO-68 02 Sep 11:22:52 11:28:20 23° 302° (WNW) 11:33:36 435.675
ZACube-1 02 Sep 11:25:53 11:30:05 38° 289° (WNW) 11:34:08 437.345
ISS 02 Sep 11:27:44 11:29:49 15° 355° (N) 11:31:52 145.825
VELOX 1 02 Sep 11:30:14 11:34:14 32° 96° (E) 11:38:16 145.980
FUNcube-1 02 Sep 11:30:35 11:34:42 35° 289° (WNW) 11:38:39 145.935
